Weather History for St. Joseph, MO

Change the Weather History Date:

Thursday, March 14, 2013

  Actual Average Record
Temperature  
Mean Temperature 52 °F 42 °F  
Max Temperature 71 °F 54 °F 83 °F (2012)
Min Temperature 32 °F 31 °F 2 °F (1975)
Degree Days  
Heating Degree Days 13 23  
Month to date heating degree days 411 360  
Since 1 July heating degree days 4515 4668  
Cooling Degree Days 0 0  
Month to date cooling degree days 0 0  
Year to date cooling degree days 0 0  
Growing Degree Days 2 (Base 50)    
Moisture  
Dew Point 30 °F    
Average Humidity 53    
Maximum Humidity 79    
Minimum Humidity 27    
Precipitation  
Precipitation 0.00 in 0.07 in 0.87 in (1944)
Month to date precipitation 1.19 0.84  
Year to date precipitation 2.20 2.33  
Sea Level Pressure  
Sea Level Pressure 30.15 in    
Wind  
Wind Speed 7 mph (SW)    
Max Wind Speed 13 mph    
Max Gust Speed 18 mph    
Visibility 10 miles    
Events      
T = Trace of Precipitation, MM = Missing Value Source: NWS Daily Summary

Daily Weather History Graph

Daily Weather History Graph

Search for Another Location

Airport:

Trip Planner

Search our weather history database for the weather conditions in past years. The results will help you decide how hot, cold, wet, or windy it might be!

Date:

Astronomy

Mar. 14, 2013 Rise Set
Actual Time 7:32 AM CDT 7:25 PM CDT
Civil Twilight 7:05 AM CDT 7:52 PM CDT
Nautical Twilight 6:34 AM CDT 8:24 PM CDT
Astronomical Twilight 6:02 AM CDT 8:55 PM CDT
Moon 8:47 AM CDT (3/14) 10:42 PM CDT (3/14)
Length of Visible Light 12h 47m
Length of Day
11h 53m
Waxing Crescent, 9% of the Moon is Illuminated
Mar 14
Waxing Crescent
Mar 19
First Quarter
Mar 27
Full
Apr 2
Last Quarter
Apr 10
New

Hourly Weather History & Observations

Time (CDT) Temp. Windchill Dew Point Humidity Pressure Visibility Wind Dir Wind Speed Gust Speed Precip Events Conditions
12:53 AM 32.0 °F 27.5 °F 21.9 °F 66% 30.32 in 10.0 mi SSE 4.6 mph - N/A   Clear
1:53 AM 33.1 °F 26.9 °F 23.0 °F 66% 30.30 in 10.0 mi South 6.9 mph - N/A   Clear
2:53 AM 34.0 °F 26.6 °F 24.1 °F 67% 30.28 in 10.0 mi South 9.2 mph - N/A   Clear
3:53 AM 34.0 °F 25.5 °F 24.1 °F 67% 30.22 in 10.0 mi South 11.5 mph - N/A   Clear
4:53 AM 34.0 °F 28.8 °F 23.0 °F 64% 30.21 in 10.0 mi SSE 5.8 mph - N/A   Clear
5:53 AM 34.0 °F 29.8 °F 23.0 °F 64% 30.19 in 10.0 mi SSE 4.6 mph - N/A   Partly Cloudy
6:53 AM 36.0 °F 30.3 °F 23.0 °F 59% 30.17 in 10.0 mi South 6.9 mph - N/A   Scattered Clouds
7:53 AM 37.0 °F 31.6 °F 23.0 °F 57% 30.15 in 10.0 mi South 6.9 mph - N/A   Clear
8:53 AM 41.0 °F 38.0 °F 26.1 °F 55% 30.14 in 10.0 mi SSW 4.6 mph - N/A   Clear
9:53 AM 45.0 °F 40.6 °F 27.0 °F 49% 30.14 in 10.0 mi SSW 8.1 mph - N/A   Clear
10:53 AM 48.9 °F - 30.0 °F 48% 30.12 in 10.0 mi SSW 9.2 mph - N/A   Clear
11:53 AM 55.9 °F - 34.0 °F 44% 30.11 in 10.0 mi West 10.4 mph - N/A   Clear
12:53 PM 59.0 °F - 36.0 °F 42% 30.11 in 10.0 mi West 8.1 mph - N/A   Clear
2:53 PM 68.0 °F - 37.0 °F 32% 30.08 in 10.0 mi NNW 9.2 mph - N/A   Clear
3:53 PM 69.1 °F - 37.9 °F 32% 30.06 in 10.0 mi WNW 11.5 mph - N/A   Clear
4:53 PM 71.1 °F - 36.0 °F 28% 30.06 in 8.0 mi NW 12.7 mph - N/A   Clear
5:53 PM 70.0 °F - 36.0 °F 29% 30.06 in 10.0 mi North 10.4 mph - N/A   Clear
6:53 PM 63.0 °F - 36.0 °F 37% 30.09 in 10.0 mi North 10.4 mph - N/A   Clear
8:53 PM 48.0 °F - 36.0 °F 63% 30.11 in 10.0 mi North 3.5 mph - N/A   Clear
9:53 PM 44.1 °F 41.5 °F 34.0 °F 68% 30.12 in 10.0 mi NNW 4.6 mph - N/A   Clear
10:53 PM 43.0 °F 41.3 °F 34.0 °F 71% 30.12 in 10.0 mi North 3.5 mph - N/A   Clear
11:53 PM 39.9 °F - 33.1 °F 77% 30.11 in 10.0 mi Calm Calm - N/A   Clear